Regional Weather Roundup
Issued by NWS

Home | Current Version | Previous Version | Text Only | Print | Product List | Glossary On
Versions: 1 2 3 4 5 6 7 8 9 10 11 12 13 14 15 16 17 18 19 20 21 22 23 24 25 26 27 28 29 30 31 32 33 34 35 36 37 38 39 40 41 42 43 44 45 46 47 48 49 50
000
ASUS42 KFFC 250710
RWRGA
WEATHER ROUNDUP FOR GEORGIA
NATIONAL WEATHER SERVICE PEACHTREE CITY GA
300 AM EDT TUE APR 25 2017

NOTE: "FAIR" INDICATES FEW OR NO CLOUDS BELOW 12,000 FEET WITH NO
SIGNIFICANT WEATHER AND/OR OBSTRUCTIONS TO VISIBILITY.

* = USE WITH CAUTION. THE STATIONS MARKED WITH AN ASTERISK MAY NOT
REPORT WEATHER SUCH AS PRECIPITATION, FOG, OR THUNDER AND ARE NOT
QUALITY CONTROLLED BY NWS.

THE REMARK "TC" DENOTES TEMPERATURE READING IN DEGREES CELSIUS.

GAZ001>058-250800-
NORTH GEORGIA

CITY           SKY/WX    TMP DP  RH WIND       PRES   REMARKS
ATLANTA        CLOUDY    59  57  93 W7        29.74F
ATHENS         CLEAR     54  54 100 CALM      29.71F
CHAMBLEE       CLOUDY    57  55  93 CALM      29.74F
PEACHTREE CITY CLOUDY    59  56  89 NW3       29.76R
ROME           CLEAR     55  52  89 CALM      29.75R
WEST ATLANTA   CLOUDY    59  57  93 NW5       29.74S
GAINESVILLE    FOG       53  53 100 W5        29.75S VSB 1
CARTERSVILLE   CLOUDY    57  56  96 CALM      29.76R


CITY           SKY/WX    TMP DP  RH WIND       PRES   REMARKS
DALTON*        PTCLDY    54  54 100 CALM      29.75S
MARIETTA       CLOUDY    59  55  88 W7        29.74S
CANTON*        CLOUDY    59  54  82 CALM      29.75F
$$

GAZ059>098-102>109-250800-
CENTRAL GEORGIA

CITY           SKY/WX    TMP DP  RH WIND       PRES   REMARKS
AUGUSTA-BUSH   CLOUDY    59  55  87 N7        29.68F
AUGUSTA-DANIEL CLOUDY    57  52  83 NW10G17   29.69S
COLUMBUS       CLEAR     57  53  86 CALM      29.74F
MACON          MOCLDY    58  56  93 W3        29.73F
ROBINS AFB     CLOUDY    60  57  92 N3        29.72F


CITY           SKY/WX    TMP DP  RH WIND       PRES   REMARKS
LAGRANGE*      MOCLDY    53  53 100 CALM      29.76S
SYLVANIA*      CLOUDY   N/A N/A N/A N7        29.69S FOG
MILLEDGEVILLE* MOCLDY    55  55 100 CALM      29.71F
$$

GAZ099>101-110>166-250800-
SOUTH GEORGIA

CITY           SKY/WX    TMP DP  RH WIND       PRES   REMARKS
SAVANNAH       CLOUDY    60  54  80 W10       29.67F
VALDOSTA       CLEAR     54  51  90 CALM      29.74F
ALMA           CLOUDY    59  56  89 W5        29.71F
ST SIMONS      LGT RAIN  61  55  81 W8        29.70F
FT STEWART     CLOUDY    61  55  81 W9        29.67S
ALBANY         CLOUDY    59  57  93 SW3       29.76F
HUNTER AFB     CLOUDY    61  58  90 W10       29.64F
MOODY AFB      CLEAR     57  52  83 W5        29.73F
BRUNSWICK      CLOUDY    61  57  88 W8        29.71S


CITY           SKY/WX    TMP DP  RH WIND       PRES   REMARKS
BAINBRIDGE*    CLEAR     55  52  88 W3        29.77R
MOULTRIE*      PTCLDY    57  54  88 CALM      29.75F
VIDALIA*       CLOUDY    61  57  88 W5        29.70F
WAYCROSS*      MOCLDY    60  59  97 W5        29.72F
DOUGLAS*       CLOUDY    59  55  88 W6        29.74F
$$



USA.gov is the U.S. government's official web portal to all federal, state and local government web resources and services.